Regional Weather Roundup
Issued by NWS

Home | Current Version | Previous Version | Graphics & Text | Print | Product List | Glossary On
Versions: 1 2 3 4 5 6 7 8 9 10 11 12 13 14 15 16 17 18 19 20 21 22 23 24 25 26 27 28 29 30 31 32 33 34 35 36 37 38 39 40 41 42 43 44 45 46 47 48 49 50
000
ASUS45 KSLC 022110
RWRUT
UTAH REGIONAL WEATHER ROUNDUP
NATIONAL WEATHER SERVICE SALT LAKE CITY UT
300 PM MDT SUN AUG 02 2015

UTZ001>011-023>025-022200-

NORTHERN UTAH

CITY           SKY/WX    TMP DP  RH WIND       PRES   REMARKS
BRIGHAM CITY   PTSUNNY   91  31  12 W3        29.96F
HILL AFB       PTSUNNY   88  43  20 W7        30.00F
LOGAN          SUNNY     93  34  12 N7        29.96F
OGDEN          PTSUNNY   90  41  18 W7        29.96F
PROVO AIRPORT  PTSUNNY   84  46  26 SE20      30.02R
SALT LAKE CITY PTSUNNY   91  33  12 W10       29.95F
VERNAL         PTSUNNY   88  44  21 SW6       30.05F
WENDOVER       MOSUNNY   95  36  12 SE9       29.97F HX  90
HEBER CITY     CLOUDY    82  43  24 S14G20    30.07R
WEST JORDAN    SUNNY     90  43  19 NW9       29.99F

$$

UTZ012>022-026-027-022200-

SOUTHERN/CENTRAL UTAH

CITY           SKY/WX    TMP DP  RH WIND       PRES   REMARKS
BLANDING       PTSUNNY   73  57  56 SW7       30.23S
BRYCE CANYON   CLOUDY    71  51  49 N7        30.27F
CEDAR CITY     CLOUDY    79  41  25 N3        30.13F
DELTA          CLOUDY    81  44  27 SE25G35   30.05R
HANKSVILLE     CLOUDY    64  61  88 S5        30.12F
MILFORD        CLOUDY    82  45  27 S10       30.08F
MOAB/CYNLANDS  SUNNY     78  53  41 S7        30.06F
PRICE          CLOUDY    79  51  37 SE21G26   30.14S
ST GEORGE      CLOUDY    91  52  25 NW9       29.96F
KANAB          PTSUNNY   82  55  39 CALM      30.14F

$$

REGIONAL REPORTS     COLORADO/ARIZONA

CITY           SKY/WX    TMP DP  RH WIND       PRES   REMARKS
CRAIG, CO      PTSUNNY   88  42  20 NE5       30.11F
GRAND JUNCTION CLOUDY    77  55  46 VRB3      30.08F
RIFLE          CLOUDY    82  49  31 NW8       30.10F
MONTROSE       CLOUDY    72  54  53 SW7       30.18F
CORTEZ         SUNNY     75  57  53 S12       30.15F
PAGE, AZ       MOSUNNY   77  63  61 SE5       30.06F
GRAND CANYON   CLOUDY    70  55  59 VRB7      30.23R THUNDER
KINGMAN        SUNNY     96  44  16 W9        29.99F HX  92
FLAGSTAFF      CLOUDY    74  48  39 W8G16     30.23F

$$

REGIONAL REPORTS    NEVADA/IDAHO/WYOMING

CITY           SKY/WX    TMP DP  RH WIND       PRES   REMARKS
LAS VEGAS, NV  MOSUNNY  100  50  18 NE8       29.84F HX  97
ELY            CLOUDY    80  39  23 S17       30.14F
ELKO           MOSUNNY   89  40  17 VRB6      30.04F
POCATELLO, ID  MOSUNNY   96  33  11 NW9       29.99F HX  91
BURLEY         PTSUNNY   91  38  15 CALM      29.96F
EVANSTON, WY   MOSUNNY   88  25  10 E15       30.17F
ROCK SPRINGS   SUNNY     86  27  11 CALM      30.15F
KEMMERER       PTSUNNY  N/A N/A N/A CALM      30.21F

$$



USA.gov is the U.S. government's official web portal to all federal, state and local government web resources and services.